Location: Santa Fe
(35.6870°N, 105.9370°W)
Time: 10:51:47
(UTC-06:00)

Amateur Radio Satellites - All Passes

Search period start: 25 May 2016 10:21
Search period end: 26 May 2016 10:21
Location: Santa Fe, 35.6870°N, 105.9370°W

Satellite Date Start Highest point End Downlink Frequencies (MHz)
Time Altitude Azimuth
HUMSAT D 25 May 10:23:03 10:25:33 16° 94° (E) 10:28:05 437.325/437.525
AAUSAT CUBESAT 2 25 May 10:25:34 10:29:16 31° 288° (WNW) 10:32:59 437.432
Cosmos 2499 25 May 10:28:59 10:37:38 84° 83° (E) 10:46:33 435.465 / 435.565
PCSat 25 May 10:29:23 10:34:47 77° 115° (ESE) 10:40:13 145.827
FUNcube-1 25 May 10:29:40 10:33:51 86° 102° (ESE) 10:38:06 145.935
ANTELSAT 25 May 10:29:53 10:34:14 61° 76° (ENE) 10:38:31 437.575/2403.000
JUGNU 25 May 10:30:45 10:34:11 16° 186° (S) 10:37:37 437.505
SRMSAT 25 May 10:30:49 10:34:11 15° 174° (S) 10:37:32 437.500
GONETS M04 25 May 10:41:07 10:49:26 52° 270° (W) 10:57:44
O/OREOS (USA 219) 25 May 10:41:44 10:46:12 55° 292° (WNW) 10:50:41 437.305
DUCHIFAT 1 25 May 11:07:05 11:10:27 24° 70° (ENE) 11:13:50 145.980
CUSAT 1 25 May 11:15:20 11:19:24 19° 81° (E) 11:24:01 437.405
DELFI C3 25 May 11:17:19 11:21:08 42° 286° (WNW) 11:24:56 145.870
Oscar 11 25 May 11:18:04 11:21:24 22° 291° (WNW) 11:24:45 145.826/435.025
UNISAT 6 25 May 11:25:46 11:29:36 29° 263° (W) 11:33:24 437.425
ZACube-1 25 May 11:27:18 11:30:15 19° 291° (WNW) 11:33:13 437.345
CUBEBUG 1 25 May 11:31:32 11:32:28 11° 91° (E) 11:33:23 437.445
BEESAT 2 25 May 11:31:38 11:32:24 10° 107° (ESE) 11:33:09 435.950
VELOX 1 25 May 11:31:50 11:32:27 10° 91° (E) 11:33:04 145.980
TIGRISAT 25 May 11:34:29 11:38:06 25° 264° (W) 11:41:40 435.000
BUGSAT 1 25 May 11:36:12 11:39:35 24° 70° (ENE) 11:42:56 437.445
POPSAT HIP 1 25 May 11:41:13 11:45:25 68° 76° (ENE) 11:49:39 437.405
QB50P1 25 May 11:41:52 11:46:05 71° 76° (ENE) 11:50:19 145.935-145.965
QB50P2 25 May 11:43:12 11:47:27 78° 76° (ENE) 11:51:41 145.880/145.840
POLYITAN 1 25 May 11:45:39 11:49:54 80° 75° (ENE) 11:54:08 437.675
HUMSAT D 25 May 11:57:29 12:01:15 34° 287° (WNW) 12:05:03 437.325/437.525
NANOSAT C BR1 25 May 12:01:49 12:06:02 69° 259° (WSW) 12:10:16 145.865
SO-50 25 May 12:02:42 12:04:59 14° 253° (WSW) 12:07:15 436.795
AISAT 25 May 12:04:42 12:08:32 28° 97° (E) 12:12:18 437.250
BEESAT 3 25 May 12:08:04 12:11:55 58° 116° (ESE) 12:15:48 437.485
SPROUT 25 May 12:10:20 12:11:16 11° 92° (E) 12:12:12 437.525
PCSat 25 May 12:15:42 12:18:47 15° 312° (NW) 12:21:52 145.827
SRMSAT 25 May 12:19:02 12:22:36 16° 184° (S) 12:26:08 437.500
Cosmos 2499 25 May 12:24:29 12:29:42 18° 280° (W) 12:35:01 435.465 / 435.565
JAS-2 25 May 12:26:16 12:32:52 41° 67° (ENE) 12:39:58 435.910
UKube-1 25 May 12:26:42 12:30:34 31° 98° (E) 12:34:24 .
DANDE 25 May 12:26:53 12:31:15 32° 86° (E) 12:36:50 436.750
ESTCUBE 1 25 May 12:31:50 12:36:24 88° 112° (ESE) 12:40:56 437.505/2401.250
50 SAT 25 May 12:34:32 12:38:16 78° 102° (ESE) 12:41:59 437.505
DUCHIFAT 1 25 May 12:42:37 12:46:03 24° 264° (W) 12:49:29 145.980
CUSAT 1 25 May 12:54:45 13:00:29 62° 283° (WNW) 13:07:45 437.405
Oscar 19 25 May 13:02:18 13:06:53 32° 70° (ENE) 13:11:29 437.125/150
CUBEBUG 1 25 May 13:04:46 13:09:03 55° 286° (WNW) 13:13:17 437.445
VELOX 1 25 May 13:04:53 13:09:14 58° 286° (WNW) 13:13:33 145.980
BEESAT 2 25 May 13:05:52 13:09:44 52° 302° (WNW) 13:13:38 435.950
Gurwin Techsat 1B 25 May 13:06:47 13:09:38 15° 63° (ENE) 13:12:29 435.225
DX 1 25 May 13:08:18 13:12:37 64° 286° (WNW) 13:16:53 434.975-435.025
BUGSAT 1 25 May 13:11:24 13:14:50 24° 264° (W) 13:18:15 437.445
AISAT 25 May 13:41:26 13:44:50 22° 291° (WNW) 13:48:12 437.250
ITAMSAT 1 25 May 13:41:40 13:43:20 12° 62° (ENE) 13:45:02 435.822/435.867
SPROUT 25 May 13:43:21 13:47:30 52° 286° (WNW) 13:51:37 437.525
BEESAT 3 25 May 13:48:22 13:49:58 12° 313° (NW) 13:51:34 437.485
Cosmos 2491 25 May 14:02:25 14:04:53 11° 61° (ENE) 14:07:20 435.465 / 435.565
UKube-1 25 May 14:03:18 14:06:22 19° 292° (WNW) 14:09:25 .
SRMSAT 25 May 14:09:35 14:10:58 11° 194° (SSW) 14:12:21 437.500
DANDE 25 May 14:09:41 14:14:04 28° 292° (WNW) 14:19:38 436.750
JAS-2 25 May 14:11:20 14:17:47 37° 265° (W) 14:24:48 435.910
TISAT 1 25 May 14:16:41 14:20:52 85° 284° (WNW) 14:25:01 437.305
BEESAT 25 May 14:18:16 14:21:08 16° 93° (E) 14:24:01 436.000
Oscar 19 25 May 14:41:52 14:46:10 26° 264° (W) 14:50:29 437.125/150
Gurwin Techsat 1B 25 May 14:43:44 14:48:59 64° 259° (WSW) 14:54:16 435.225
AO-7 25 May 14:44:21 14:51:19 31° 60° (ENE) 14:58:19 29.400- 29.500
AIST 2 25 May 14:54:44 14:58:47 60° 301° (WNW) 15:02:53 435.215
ITAMSAT 1 25 May 15:16:57 15:22:06 78° 258° (WSW) 15:27:18 435.822/435.867
SWISSCUBE 25 May 15:24:19 15:29:08 87° 286° (WNW) 15:33:56 437.505
ITUPSAT 1 25 May 15:29:08 15:33:58 88° 284° (WNW) 15:38:46 437.325
AO-85 25 May 15:46:35 15:50:58 41° 55° (NE) 15:54:58 145.980
MOZHAYETS 4 25 May 15:51:25 15:53:37 13° 92° (E) 15:55:50
KKS-1 25 May 15:52:51 15:55:53 18° 94° (E) 15:58:55 437.445
YUBILEINY 25 May 15:53:02 16:00:23 32° 85° (E) 16:07:45 435.215
BEESAT 25 May 15:54:33 15:59:07 45° 288° (WNW) 16:03:40 436.000
Cosmos 2491 25 May 15:54:37 16:03:24 71° 82° (E) 16:12:03 435.465 / 435.565
HORYU 2 25 May 16:14:31 16:17:57 22° 69° (ENE) 16:21:23 437.375
STARS 25 May 16:34:32 16:38:13 26° 97° (E) 16:41:53 437.465
AO-7 25 May 16:35:36 16:43:39 54° 258° (WSW) 16:51:45 29.400- 29.500
RS-15 25 May 16:50:41 17:00:23 36° 105° (ESE) 17:10:29 29.354- 29.394
NOAA 18 25 May 17:09:06 17:12:18 16° 63° (ENE) 17:15:30 137.9125
BRITE-PL 25 May 17:11:43 17:14:46 15° 63° (ENE) 17:17:51 437.365/2234.400
MOZHAYETS 4 25 May 17:26:33 17:31:02 50° 286° (WNW) 17:35:30
AO-85 25 May 17:28:19 17:30:56 16° 253° (WSW) 17:33:26 145.980
KKS-1 25 May 17:28:31 17:32:31 34° 289° (WNW) 17:36:29 437.445
Cubesat XI-IV 25 May 17:29:15 17:32:50 19° 65° (ENE) 17:36:27 437.490
NOAA 15 25 May 17:31:46 17:36:18 30° 68° (ENE) 17:40:52 137.62
GOMX 1 25 May 17:48:15 17:51:24 16° 65° (ENE) 17:54:32 467.674
YUBILEINY 25 May 17:48:28 17:56:46 48° 282° (WNW) 18:05:07 435.215
HORYU 2 25 May 17:50:33 17:54:20 28° 263° (W) 17:58:08 437.375
Cosmos 2491 25 May 17:53:18 17:59:15 21° 279° (W) 18:05:13 435.465 / 435.565
STARS 25 May 18:11:00 18:14:26 23° 291° (WNW) 18:17:51 437.465
CUTE-I 25 May 18:14:27 18:19:34 51° 72° (ENE) 18:24:42 437.470
Cosmos 2504 25 May 18:21:39 18:28:48 82° 94° (E) 18:36:18 435.465 / 435.565
LilacSat-2 25 May 18:34:11 18:37:59 74° 77° (ENE) 18:41:46 437.200
HO-68 25 May 18:35:09 18:38:13 13° 56° (NE) 18:41:18 435.675
CUBESAT XI-V 25 May 18:45:28 18:50:09 67° 285° (WNW) 18:54:48 437.345
BRITE-PL 25 May 18:46:59 18:52:31 72° 260° (W) 18:58:14 437.365/2234.400
NOAA 18 25 May 18:47:00 18:52:24 62° 258° (WSW) 18:57:49 137.9125
DOVE 4 25 May 18:47:13 18:51:36 28° 70° (ENE) 18:55:54 437.250
RS-15 25 May 19:00:56 19:12:04 61° 305° (NW) 19:23:53 29.354- 29.394
Cubesat XI-IV 25 May 19:07:22 19:12:30 49° 260° (W) 19:17:39 437.490
STRAND 1 25 May 19:10:29 19:13:27 15° 93° (E) 19:16:25 437.568
NOAA 15 25 May 19:11:22 19:15:58 30° 263° (W) 19:20:36 137.62
O/OREOS (USA 219) 25 May 19:16:49 19:19:24 15° 58° (ENE) 19:21:59 437.305
PCSat 25 May 19:20:30 19:25:23 33° 56° (NE) 19:30:14 145.827
GOMX 1 25 May 19:23:26 19:28:53 65° 260° (W) 19:34:19 467.674
AUBIESAT-1 25 May 19:27:22 19:31:07 32° 68° (ENE) 19:34:40 437.475
M-CUBED/EXP-1 PRIME 25 May 19:31:39 19:35:47 45° 70° (ENE) 19:39:38 437.505
CINEMA 3 25 May 19:34:53 19:38:42 24° 70° (ENE) 19:42:23 145.822/145.860
CUTE-I 25 May 19:56:32 19:59:51 17° 267° (W) 20:03:12 437.470
CANX-2 25 May 20:10:08 20:14:15 59° 75° (ENE) 20:18:24 2200.000
SEEDS 25 May 20:17:29 20:21:25 43° 74° (ENE) 20:25:23 437.485
HO-68 25 May 20:17:40 20:24:48 79° 73° (ENE) 20:31:58 435.675
Cosmos 2504 25 May 20:19:26 20:23:11 15° 294° (WNW) 20:27:01 435.465 / 435.565
DOVE 4 25 May 20:24:26 20:29:07 32° 263° (W) 20:33:43 437.250
BEESAT 3 25 May 20:29:08 20:31:28 15° 49° (NE) 20:33:47 437.485
Oscar 11 25 May 20:34:47 20:37:17 15° 67° (ENE) 20:39:47 145.826/435.025
CUTE 1.7 + AOD 2 25 May 20:37:46 20:41:56 73° 259° (WSW) 20:46:09 437.475
CUBEBUG 2 25 May 20:38:56 20:42:57 34° 73° (ENE) 20:46:51 437.445
ZACube-1 25 May 20:44:26 20:47:11 17° 69° (ENE) 20:49:55 437.345
STRAND 1 25 May 20:47:53 20:52:54 53° 287° (WNW) 20:57:53 437.568
O/OREOS (USA 219) 25 May 20:54:46 20:59:02 45° 254° (WSW) 21:03:17 437.305
AUBIESAT-1 25 May 21:02:41 21:05:35 18° 259° (W) 21:08:23 437.475
PCSat 25 May 21:04:00 21:08:39 30° 252° (WSW) 21:13:17 145.827
AIST 1 25 May 21:05:04 21:08:31 23° 89° (E) 21:12:00
COMPASS 1 25 May 21:07:29 21:11:34 64° 259° (W) 21:15:42 437.405
M-CUBED/EXP-1 PRIME 25 May 21:08:22 21:10:23 13° 260° (W) 21:12:23 437.505
CINEMA 3 25 May 21:11:25 21:15:39 30° 263° (W) 21:19:46 145.822/145.860
UWE-3 25 May 21:11:49 21:16:05 56° 76° (ENE) 21:20:15 435.000/436.395/437.385
AAUSAT CUBESAT 2 25 May 21:12:09 21:16:14 72° 259° (W) 21:20:22 437.432
RS-15 25 May 21:19:47 21:27:48 20° 334° (NNW) 21:36:07 29.354- 29.394
PRISM 25 May 21:22:02 21:26:12 69° 101° (ESE) 21:30:20 437.425
FUNcube-1 25 May 21:22:15 21:26:18 44° 74° (ENE) 21:30:17 145.935
BEESAT 2 25 May 21:26:41 21:30:20 33° 55° (NE) 21:33:57 435.950
GONETS M04 25 May 21:42:09 21:50:01 38° 87° (E) 21:57:52
ISS 25 May 21:53:17 21:56:27 51° 135° (SE) 21:59:38 145.825
CUSAT 1 25 May 21:53:24 21:57:30 15° 61° (ENE) 22:01:17 437.405
SEEDS 25 May 21:55:32 21:57:19 12° 268° (W) 21:59:06 437.485
PHONESAT 2.4 25 May 21:56:57 21:58:57 16° 145° (SE) 22:00:57 2401.200-2431.200
DELFI C3 25 May 21:59:53 22:03:48 70° 76° (ENE) 22:07:46 145.870
BEESAT 3 25 May 22:05:36 22:09:22 43° 245° (WSW) 22:13:05 437.485
Oscar 11 25 May 22:09:01 22:13:03 39° 261° (W) 22:17:06 145.826/435.025
HO-68 25 May 22:09:08 22:13:08 16° 268° (W) 22:17:11 435.675
CUBEBUG 2 25 May 22:16:37 22:19:37 18° 266° (W) 22:22:33 437.445
ZACube-1 25 May 22:19:19 22:23:13 34° 262° (W) 22:27:03 437.345
ANTELSAT 25 May 22:25:39 22:28:10 15° 94° (E) 22:30:43 437.575/2403.000
AIST 1 25 May 22:42:25 22:45:59 24° 284° (WNW) 22:49:36
HUMSAT D 25 May 22:45:17 22:49:22 77° 258° (WSW) 22:53:27 437.325/437.525
UWE-3 25 May 22:52:32 22:52:48 10° 268° (W) 22:53:05 435.000/436.395/437.385
AISAT 25 May 22:59:51 23:02:58 19° 68° (ENE) 23:06:06 437.250
FUNcube-1 25 May 23:00:54 23:02:43 12° 267° (W) 23:04:31 145.935
Cosmos 2499 25 May 23:02:21 23:09:26 73° 94° (E) 23:17:01 435.465 / 435.565
BEESAT 2 25 May 23:05:19 23:07:54 17° 250° (WSW) 23:10:28 435.950
DANDE 25 May 23:07:47 23:15:10 33° 71° (ENE) 23:21:57 436.750
50 SAT 25 May 23:10:37 23:13:25 21° 71° (ENE) 23:16:14 437.505
AIST 2 25 May 23:18:53 23:22:41 34° 55° (NE) 23:26:28 435.215
UKube-1 25 May 23:19:02 23:22:07 19° 68° (ENE) 23:25:14 .
UNISAT 6 25 May 23:19:26 23:23:44 68° 102° (ESE) 23:28:04 437.425
TIGRISAT 25 May 23:27:42 23:32:00 81° 102° (ESE) 23:36:21 435.000
ESTCUBE 1 25 May 23:28:12 23:32:36 55° 74° (ENE) 23:37:02 437.505/2401.250
POPSAT HIP 1 25 May 23:30:38 23:32:42 13° 93° (E) 23:34:45 437.405
ISS 25 May 23:30:51 23:33:06 17° 331° (NNW) 23:35:21 145.825
QB50P1 25 May 23:31:07 23:33:19 14° 93° (E) 23:35:30 145.935-145.965
PHONESAT 2.4 25 May 23:32:16 23:35:24 87° 330° (NNW) 23:38:33 2401.200-2431.200
QB50P2 25 May 23:32:25 23:34:55 15° 94° (E) 23:37:25 145.880/145.840
CUSAT 1 25 May 23:33:07 23:40:57 86° 81° (E) 23:47:23 437.405
POLYITAN 1 25 May 23:34:48 23:37:21 16° 94° (E) 23:39:55 437.675
GONETS M04 25 May 23:38:30 23:46:40 42° 284° (WNW) 23:54:51
RS-15 25 May 23:40:54 23:47:24 15° 12° (NNE) 23:53:59 29.354- 29.394
NANOSAT C BR1 25 May 23:49:47 23:53:05 22° 96° (E) 23:56:22 145.865
CUBEBUG 1 25 May 23:57:13 00:01:39 82° 77° (ENE) 00:06:06 437.445
VELOX 1 25 May 23:58:47 00:03:15 84° 76° (ENE) 00:07:44 145.980
DX 1 26 May 00:00:28 00:04:50 75° 75° (ENE) 00:09:13 434.975-435.025
ANTELSAT 26 May 00:01:01 00:04:59 38° 287° (WNW) 00:09:01 437.575/2403.000
DUCHIFAT 1 26 May 00:28:40 00:32:49 64° 101° (ESE) 00:36:56 145.980
SO-50 26 May 00:31:36 00:36:02 35° 113° (ESE) 00:40:29 436.795
SPROUT 26 May 00:33:30 00:37:48 78° 75° (ENE) 00:42:05 437.525
AISAT 26 May 00:35:05 00:39:10 35° 262° (W) 00:43:17 437.250
50 SAT 26 May 00:44:28 00:47:04 19° 265° (W) 00:49:41 437.505
DANDE 26 May 00:50:12 00:58:17 52° 269° (W) 01:05:33 436.750
UKube-1 26 May 00:54:04 00:57:56 31° 262° (W) 01:01:49 .
BUGSAT 1 26 May 00:55:17 00:59:17 58° 101° (E) 01:03:13 437.445
AIST 2 26 May 00:58:03 01:00:54 18° 250° (WSW) 01:03:43 435.215
Cosmos 2499 26 May 00:58:54 01:03:24 17° 293° (WNW) 01:08:06 435.465 / 435.565
POPSAT HIP 1 26 May 01:04:42 01:08:38 40° 287° (WNW) 01:12:34 437.405
TISAT 1 26 May 01:05:12 01:09:16 46° 74° (ENE) 01:13:19 437.305
QB50P1 26 May 01:05:19 01:09:14 39° 287° (WNW) 01:13:08 145.935-145.965
QB50P2 26 May 01:06:58 01:10:49 35° 288° (WNW) 01:14:38 145.880/145.840
ESTCUBE 1 26 May 01:08:15 01:09:43 11° 268° (W) 01:11:11 437.505/2401.250
POLYITAN 1 26 May 01:09:26 01:13:15 35° 288° (WNW) 01:17:03 437.675
PHONESAT 2.4 26 May 01:09:28 01:12:22 33° 355° (N) 01:15:15 2401.200-2431.200
CUSAT 1 26 May 01:17:54 01:21:40 15° 282° (WNW) 01:25:11 437.405
Oscar 19 26 May 01:18:14 01:20:49 14° 92° (E) 01:23:24 437.125/150
BEESAT 26 May 01:22:44 01:25:07 14° 64° (ENE) 01:27:32 436.000
JAS-2 26 May 01:24:24 01:31:27 45° 97° (E) 01:37:44 435.910
NANOSAT C BR1 26 May 01:25:19 01:28:44 25° 290° (WNW) 01:32:07 145.865
RS-15 26 May 01:53:55 02:05:07 38° 45° (NE) 02:16:14 29.354- 29.394
YUBILEINY 26 May 02:08:50 02:12:03 12° 63° (ENE) 02:15:15 435.215
SO-50 26 May 02:12:27 02:16:33 26° 309° (NW) 02:20:41 436.795
SWISSCUBE 26 May 02:27:40 02:32:24 78° 76° (ENE) 02:37:11 437.505
ITUPSAT 1 26 May 02:32:47 02:37:31 77° 75° (ENE) 02:42:17 437.325
TISAT 1 26 May 02:43:27 02:45:07 12° 267° (W) 02:46:47 437.305
PHONESAT 2.4 26 May 02:46:30 02:49:29 40° 11° (N) 02:52:29 2401.200-2431.200
KKS-1 26 May 02:49:23 02:51:20 13° 65° (ENE) 02:53:16 437.445
Oscar 19 26 May 02:55:24 03:00:28 58° 287° (WNW) 03:05:29 437.125/150
BEESAT 26 May 02:57:45 03:02:24 55° 259° (W) 03:07:05 436.000
Cosmos 2491 26 May 03:00:26 03:04:47 15° 78° (ENE) 03:09:07 435.465 / 435.565
Gurwin Techsat 1B 26 May 03:02:51 03:08:08 66° 101° (ESE) 03:13:25 435.225
JAS-2 26 May 03:09:44 03:16:07 32° 295° (WNW) 03:21:57 435.910
STARS 26 May 03:29:05 03:32:00 18° 67° (ENE) 03:34:55 437.465
ITAMSAT 1 26 May 03:32:47 03:37:50 47° 100° (E) 03:42:51 435.822/435.867
YUBILEINY 26 May 04:01:36 04:10:22 75° 82° (E) 04:19:09 435.215
RS-15 26 May 04:06:16 04:18:27 68° 247° (WSW) 04:30:28 29.354- 29.394
Cosmos 2504 26 May 04:17:03 04:23:58 27° 72° (ENE) 04:31:04 435.465 / 435.565
KKS-1 26 May 04:23:01 04:27:24 54° 259° (W) 04:31:48 437.445
PHONESAT 2.4 26 May 04:23:16 04:26:18 50° 207° (SSW) 04:29:19 2401.200-2431.200
ISS 26 May 04:23:44 04:26:14 20° 31° (NNE) 04:28:43 145.825
MOZHAYETS 4 26 May 04:25:05 04:29:37 76° 258° (WSW) 04:34:12
AO-7 26 May 04:40:06 04:48:24 64° 104° (ESE) 04:56:40 29.400- 29.500
Gurwin Techsat 1B 26 May 04:44:44 04:47:29 14° 297° (WNW) 04:50:13 435.225
Cosmos 2491 26 May 04:51:25 05:00:16 89° 96° (E) 05:09:09 435.465 / 435.565
STARS 26 May 05:03:58 05:08:03 36° 261° (W) 05:12:09 437.465
ITAMSAT 1 26 May 05:13:19 05:16:53 19° 295° (WNW) 05:20:28 435.822/435.867
HORYU 2 26 May 05:43:29 05:47:54 66° 101° (E) 05:52:18 437.375
CUBESAT XI-V 26 May 05:45:25 05:50:03 83° 79° (E) 05:54:46 437.345
NOAA 15 26 May 05:51:16 05:53:47 13° 92° (E) 05:56:17 137.62
AO-85 26 May 05:57:00 06:01:48 33° 112° (ESE) 06:06:36 145.980
ISS 26 May 05:59:42 06:02:47 39° 227° (SW) 06:05:49 145.825
YUBILEINY 26 May 06:00:25 06:06:09 20° 280° (W) 06:11:55 435.215
Cosmos 2504 26 May 06:09:26 06:17:42 60° 268° (W) 06:26:20 435.465 / 435.565
STRAND 1 26 May 06:23:47 06:27:02 17° 65° (ENE) 06:30:18 437.568
RS-15 26 May 06:24:33 06:28:32 12° 265° (W) 06:32:32 29.354- 29.394
AO-7 26 May 06:33:53 06:40:32 28° 301° (WNW) 06:47:12 29.400- 29.500
CUTE-I 26 May 06:34:54 06:39:20 26° 96° (E) 06:43:44 437.470
JUGNU 26 May 06:40:34 06:42:34 12° 167° (SSE) 06:44:34 437.505
Cosmos 2491 26 May 06:53:00 06:58:14 17° 294° (WNW) 07:03:30 435.465 / 435.565
BRITE-PL 26 May 06:55:50 07:00:47 49° 98° (E) 07:05:18 437.365/2234.400
NOAA 18 26 May 07:11:52 07:17:21 73° 103° (ESE) 07:22:50 137.9125
HORYU 2 26 May 07:23:17 07:23:52 10° 296° (WNW) 07:24:27 437.375
Cubesat XI-IV 26 May 07:27:15 07:32:38 85° 103° (ESE) 07:38:01 437.490
NOAA 15 26 May 07:28:42 07:33:56 63° 286° (WNW) 07:39:08 137.62
GOMX 1 26 May 07:29:15 07:33:46 48° 98° (E) 07:37:59 467.674
AO-85 26 May 07:37:22 07:42:16 33° 307° (NW) 07:47:07 145.980
LilacSat-2 26 May 07:44:40 07:48:17 45° 285° (WNW) 07:51:54 437.200
HO-68 26 May 07:50:36 07:54:55 17° 92° (E) 07:59:13 435.675
GONETS M04 26 May 07:57:40 08:02:13 15° 64° (ENE) 08:06:44
CANX-2 26 May 07:59:48 08:01:46 13° 92° (E) 08:03:44 2200.000
STRAND 1 26 May 08:00:51 08:05:46 50° 260° (W) 08:10:43 437.568
PRISM 26 May 08:08:42 08:12:23 32° 71° (ENE) 08:16:05 437.425
CUTE-I 26 May 08:14:33 08:19:21 34° 291° (WNW) 08:24:08 437.470
CUTE 1.7 + AOD 2 26 May 08:26:05 08:29:32 23° 96° (E) 08:32:58 437.475
DOVE 4 26 May 08:26:19 08:30:43 84° 284° (WNW) 08:34:54 437.250
JUGNU 26 May 08:27:08 08:30:48 17° 177° (S) 08:34:28 437.505
SRMSAT 26 May 08:32:40 08:32:51 10° 165° (SSE) 08:33:02 437.500
BRITE-PL 26 May 08:35:35 08:38:42 16° 296° (WNW) 08:41:41 437.365/2234.400
AUBIESAT-1 26 May 08:43:17 08:46:13 29° 103° (ESE) 08:49:09 437.475
M-CUBED/EXP-1 PRIME 26 May 08:48:21 08:51:31 46° 104° (ESE) 08:54:40 437.505
AIST 1 26 May 08:51:30 08:55:49 59° 82° (E) 09:00:03
COMPASS 1 26 May 08:53:39 08:57:07 24° 96° (E) 09:00:33 437.405
NOAA 18 26 May 08:54:42 08:57:20 14° 298° (WNW) 08:59:59 137.9125
Cosmos 2499 26 May 08:56:43 09:03:21 24° 70° (ENE) 09:10:06 435.465 / 435.565
AAUSAT CUBESAT 2 26 May 08:57:58 09:01:12 21° 95° (E) 09:04:26 437.432
UWE-3 26 May 09:05:52 09:07:52 13° 93° (E) 09:09:53 435.000/436.395/437.385
SO-50 26 May 09:06:43 09:09:39 16° 46° (NE) 09:12:32 436.795
CINEMA 3 26 May 09:08:33 09:12:43 81° 100° (E) 09:16:52 145.822/145.860
GOMX 1 26 May 09:08:54 09:11:20 14° 296° (WNW) 09:13:40 467.674
Cubesat XI-IV 26 May 09:10:27 09:11:56 11° 299° (WNW) 09:13:26 437.490
O/OREOS (USA 219) 26 May 09:25:12 09:29:05 28° 103° (ESE) 09:32:57 437.305
CANX-2 26 May 09:33:43 09:37:49 44° 286° (WNW) 09:41:53 2200.000
HO-68 26 May 09:36:02 09:43:13 76° 288° (WNW) 09:50:22 435.675
SEEDS 26 May 09:39:29 09:43:42 62° 284° (WNW) 09:47:53 437.485
DELFI C3 26 May 09:42:46 09:43:59 11° 92° (E) 09:45:13 145.870
PRISM 26 May 09:45:02 09:47:44 17° 265° (W) 09:50:27 437.425
GONETS M04 26 May 09:51:33 10:00:17 86° 82° (E) 10:09:00
PCSat 26 May 09:58:46 10:04:01 53° 112° (ESE) 10:09:18 145.827
Oscar 11 26 May 09:58:49 10:02:59 43° 99° (E) 10:07:07 145.826/435.025
CUTE 1.7 + AOD 2 26 May 10:01:47 10:05:16 25° 289° (WNW) 10:08:45 437.475
CUBEBUG 2 26 May 10:08:33 10:12:40 68° 284° (WNW) 10:16:51 437.445
ZACube-1 26 May 10:09:53 10:13:58 52° 100° (E) 10:18:07 437.345
AUBIESAT-1 26 May 10:19:19 10:20:27 11° 297° (WNW) 10:21:35 437.475
